Estació municipal de Vilalleons (Osona, E.N.Guilleries-Savassona)

Consulta les dades en temps real de l'estació municipal de Vilalleons





Hora UTC 01:40
Temperatura 5.4 ºC
Humitat 95.0 %
Pressió 1010.9 hPa
Pluja 0.0 mm
Velocitat vent 1.6 km/h
Direcció vent N

Webcam

Dades diàries 2026-05-06



Hora UTC (hivern +1h; estiu +2h)
Temperatura (ºC) Humitat (%) Pressió (hPa) Velocitat vent (km/h) Precipitació (mm)
Hora UTC Aire Humitat Pressió Vel. Dir. Vel. Max Dir. Intent. màx 5 min.
00:05 6.1 95.0 1011.3 0.0 N 0.0 0.0
00:10 6.2 95.0 1011.2 0.0 N 0.0 0.0
00:15 6.2 95.0 1011.1 0.0 N 0.0 0.0
00:20 6.2 95.0 1011.1 0.0 N 0.0 0.0
00:25 6.2 95.0 1011.1 0.0 N 0.0 0.0
00:30 6.2 95.0 1011.1 0.0 N 0.0 0.0
00:35 6.0 95.0 1011.0 0.0 N 0.0 0.0
00:40 5.9 95.0 1011.1 0.0 N 0.0 0.0
00:45 6.0 95.0 1011.1 0.0 N 0.0 0.0
00:50 5.9 95.0 1011.0 0.0 N 0.0 0.0
00:55 5.9 95.0 1011.0 3.2 N 4.8 0.0
01:00 5.9 95.0 1010.9 0.0 N 4.8 0.0
01:05 5.9 95.0 1011.1 0.0 N 4.8 0.0
01:10 5.8 95.0 1011.0 0.0 N 3.2 0.0
01:15 5.7 95.0 1011.0 1.6 N 3.2 0.0
01:20 5.7 95.0 1011.0 4.8 N 4.8 0.0
01:25 5.7 95.0 1010.9 0.0 N 4.8 0.0
01:30 5.7 95.0 1010.9 4.8 N 4.8 0.0
01:35 5.4 95.0 1010.9 1.6 N 4.8 0.0
01:40 5.4 95.0 1010.9 1.6 N 4.8 0.0
Màxima 6.2 95.0 1011.3 4.8 N 4.8 0.0
Mínima 5.4 95.0 1010.9
Total 0.0